GFSMW_700_temp_159.txt.gz
Temp
10 10 9 8 8 8 8 8 7 7 7 7 7 7 6 6 6 6 6 6 6 6 6 6 6 6 6 5 5 4 4 4 4 4 4 3 4 4 4 4 4 4 4
10 9 9 8 8 8 8 8 8 7 7 7 7 6 6 6 6 6 5 5 6 6 5 6 6 6 5 5 5 4 4 4 3 3 3 3 3 3 3 4 4 4 4
10 9 9 8 8 8 8 8 7 7 6 5 5 6 6 6 6 5 5 5 5 5 5 5 5 5 5 5 4 4 4 4 3 3 3 3 3 3 4 4 4 3 3
9 9 9 9 8 8 7 7 7 6 6 5 5 5 5 5 5 5 4 5 4 4 5 5 5 5 5 4 4 4 4 4 3 3 3 3 3 3 3 3 3 2 2
7 8 8 6 6 6 6 6 6 6 5 5 4 4 4 4 4 4 4 4 4 4 4 4 4 4 4 4 4 3 3 3 3 3 3 2 2 1 1 1 1 2 2
6 7 7 6 6 5 5 5 5 4 4 4 4 5 5 4 3 3 4 4 3 3 3 4 4 4 4 3 3 3 3 3 3 2 2 2 2 1 1 0 -0 0 1
5 5 6 6 6 5 4 3 3 3 4 4 4 4 4 4 4 2 3 3 3 3 3 3 3 3 3 3 3 3 2 2 2 2 2 2 1 1 1 1 0 0 0
4 5 5 5 5 4 4 4 3 4 4 4 3 3 4 3 3 3 3 2 2 2 2 3 2 2 2 2 2 2 2 2 2 1 1 1 1 1 0 -0 -0 -1 -0
3 2 2 1 2 3 3 3 3 2 3 3 3 3 3 3 3 2 1 1 2 1 2 2 1 1 1 1 1 1 1 1 1 1 0 1 0 0 -0 -1 -1 -1 -1
1 1 1 1 1 2 2 2 3 3 2 2 2 2 2 2 2 2 1 1 0 0 1 1 1 0 0 0 0 -0 0 -0 -1 0 -0 0 -0 -1 -1 -1 -2 -2 -2
1 1 1 0 0 1 1 1 1 1 1 1 0 0 0 1 0 1 1 -0 -1 -1 -1 -0 -1 -1 -1 -1 -1 -1 -1 -1 -2 -2 -2 -1 -1 -2 -2 -2 -2 -3 -3
1 0 -0 -0 -0 -0 0 -1 -0 -0 -0 -0 -0 -1 -2 -2 -0 -0 -1 -2 -2 -2 -2 -2 -3 -3 -3 -4 -4 -3 -3 -2 -2 -3 -3 -2 -2 -2 -3 -3 -3 -3 -3
0 -0 -0 -1 -2 -2 -2 -2 -2 -1 -1 -1 -0 -0 -0 -1 -2 -2 -2 -4 -3 -3 -3 -3 -4 -6 -6 -6 -5 -5 -5 -5 -4 -5 -4 -3 -3 -3 -3 -3 -3 -3 -3
-0 -1 -1 -1 -2 -2 -2 -2 -3 -2 -2 -2 -2 -1 -2 -2 -3 -3 -2 -4 -4 -4 -5 -6 -5 -5 -6 -6 -6 -6 -5 -5 -5 -6 -4 -3 -4 -4 -4 -4 -4 -4 -4
-1 -1 -1 -2 -2 -2 -2 -3 -3 -3 -3 -3 -5 -6 -6 -6 -5 -5 -4 -4 -4 -5 -7 -7 -7 -7 -7 -6 -6 -6 -5 -5 -7 -7 -5 -4 -5 -5 -4 -5 -5 -4 -4
-1 -1 -2 -2 -2 -2 -3 -3 -3 -3 -4 -5 -5 -6 -6 -6 -6 -6 -6 -6 -5 -6 -7 -8 -8 -8 -7 -7 -6 -6 -6 -8 -8 -6 -5 -5 -5 -5 -5 -5 -5 -5 -5
-2 -2 -2 -2 -3 -3 -3 -3 -3 -3 -4 -4 -5 -5 -5 -7 -7 -7 -6 -7 -7 -8 -8 -9 -8 -8 -7 -7 -6 -6 -6 -8 -8 -6 -6 -6 -6 -6 -6 -6 -6 -6 -6
-2 -2 -2 -2 -3 -3 -3 -3 -3 -3 -3 -4 -5 -5 -6 -8 -8 -8 -8 -8 -9 -9 -9 -9 -8 -8 -7 -7 -7 -6 -7 -9 -8 -7 -7 -7 -6 -6 -6 -6 -6 -7 -7
-3 -3 -3 -2 -3 -3 -3 -3 -3 -3 -4 -4 -5 -6 -7 -9 -9 -8 -8 -9 -10 -10 -9 -9 -9 -8 -8 -7 -7 -7 -8 -8 -7 -7 -7 -7 -7 -7 -7 -7 -7 -7 -7
-4 -4 -3 -3 -4 -4 -4 -4 -3 -3 -4 -4 -5 -5 -7 -8 -10 -10 -10 -10 -10 -10 -9 -9 -9 -8 -8 -8 -8 -11 -10 -9 -7 -7 -7 -7 -7 -8 -8 -8 -8 -8 -8
-4 -4 -4 -4 -4 -4 -4 -3 -3 -3 -3 -3 -4 -5 -5 -8 -10 -10 -10 -10 -11 -10 -10 -10 -10 -9 -8 -8 -9 -11 -10 -8 -8 -8 -8 -8 -8 -8 -8 -8 -8 -9 -9
-5 -4 -5 -4 -4 -4 -4 -4 -3 -3 -3 -4 -4 -5 -6 -8 -9 -9 -10 -11 -11 -10 -10 -10 -10 -9 -8 -8 -10 -10 -9 -9 -9 -9 -9 -9 -9 -9 -9 -9 -9 -9 -9
-5 -5 -5 -4 -4 -4 -4 -4 -5 -4 -5 -5 -4 -4 -6 -7 -9 -9 -10 -10 -11 -10 -10 -10 -10 -8 -9 -10 -9 -9 -9 -10 -9 -9 -9 -9 -10 -10 -10 -10 -10 -10 -10
-6 -5 -5 -4 -4 -4 -5 -5 -6 -6 -5 -5 -5 -5 -6 -8 -9 -9 -10 -10 -10 -10 -10 -10 -9 -9 -11 -9 -9 -9 -10 -10 -10 -10 -10 -10 -10 -10 -11 -11 -11 -11 -11
-5 -5 -5 -5 -5 -5 -5 -5 -5 -6 -6 -6 -6 -6 -7 -8 -9 -10 -10 -10 -10 -10 -10 -10 -10 -11 -11 -10 -10 -10 -10 -10 -10 -10 -10 -11 -11 -11 -11 -11 -12 -12 -12
-5 -5 -5 -5 -5 -5 -6 -6 -6 -6 -7 -7 -7 -7 -9 -9 -10 -9 -9 -9 -10 -10 -9 -9 -10 -11 -11 -11 -10 -10 -11 -11 -11 -11 -11 -11 -11 -12 -12 -12 -12 -12 -13

GFSMW_700_temp_162.txt.gz
Temp
10 10 10 10 10 9 9 9 8 8 7 7 7 7 6 6 6 6 6 6 6 5 5 5 6 6 6 6 6 5 5 5 4 4 4 4 3 4 4 4 4 4 4
9 9 9 9 9 9 9 8 8 7 6 6 6 6 6 5 5 6 6 5 5 5 5 5 5 5 5 5 5 5 4 4 4 4 3 4 4 4 4 4 4 4 3
9 9 9 9 9 8 8 7 6 6 5 5 5 5 5 5 5 5 4 4 5 5 5 5 5 5 5 5 5 5 4 4 3 3 3 3 4 4 3 3 4 4 3
9 10 9 9 8 7 6 6 6 5 5 5 5 5 4 4 5 4 4 4 4 4 4 4 4 4 4 4 4 4 4 4 3 3 3 3 3 3 3 3 3 3 3
8 8 9 9 9 7 6 5 5 5 5 4 4 4 4 4 5 5 4 4 4 3 4 4 4 4 4 4 4 4 4 3 3 2 2 2 3 3 3 3 3 2 2
7 7 7 6 6 5 5 4 4 4 3 3 4 3 4 4 4 4 4 4 3 2 3 3 3 3 3 4 3 3 3 3 2 2 2 2 2 2 2 2 2 2 2
6 7 6 6 4 4 3 2 2 2 3 3 3 3 3 4 4 4 4 3 2 1 2 2 2 2 2 2 2 2 2 2 2 2 2 2 1 1 1 1 1 1 1
4 4 4 4 3 3 2 2 2 2 3 3 3 3 3 3 3 3 3 3 2 1 0 1 2 2 2 1 1 1 1 1 1 1 1 1 1 1 0 0 0 0 0
2 2 2 2 2 2 2 1 1 2 3 2 2 2 2 2 2 2 2 3 3 2 0 -0 0 1 1 0 0 0 0 0 0 0 0 -0 -0 -0 0 -0 -0 -0 -0
1 1 1 1 2 2 2 2 1 1 2 2 1 1 -0 0 1 1 1 1 2 2 -0 -1 -1 -0 -0 -1 -1 -1 -1 -1 -1 -1 -1 -1 -1 -1 -1 -1 -1 -1 -1
-0 0 1 2 2 2 1 1 1 1 1 -0 -1 -1 -1 -0 -0 0 -0 -0 0 1 -0 -2 -2 -2 -1 -2 -2 -2 -2 -2 -2 -2 -2 -2 -3 -3 -4 -3 -2 -2 -2
0 0 0 0 0 -0 -0 -0 -0 -1 -1 -1 -1 -1 -1 -0 0 -0 -1 -1 -1 -1 -1 -2 -3 -3 -3 -3 -3 -4 -4 -4 -5 -5 -5 -4 -5 -3 -5 -4 -3 -3 -3
-0 -1 -0 -0 -1 -1 -1 -1 -2 -2 -2 -1 -1 -1 -1 -2 -2 -2 -3 -3 -3 -4 -5 -5 -4 -4 -5 -4 -4 -4 -5 -6 -5 -5 -6 -5 -5 -5 -7 -4 -4 -4 -4
-1 -1 -1 -1 -1 -1 -2 -2 -2 -2 -2 -2 -2 -2 -2 -3 -3 -4 -5 -7 -6 -6 -6 -6 -5 -5 -5 -6 -5 -5 -6 -6 -6 -6 -5 -5 -5 -6 -6 -5 -4 -4 -4
-1 -1 -1 -1 -1 -2 -2 -2 -2 -2 -2 -2 -2 -2 -2 -4 -3 -3 -5 -7 -6 -6 -6 -6 -6 -6 -6 -7 -7 -7 -7 -7 -6 -6 -5 -5 -8 -8 -7 -5 -5 -5 -5
-1 -1 -1 -2 -1 -2 -2 -2 -2 -2 -2 -2 -2 -2 -3 -3 -3 -3 -7 -7 -7 -7 -7 -7 -8 -8 -7 -8 -8 -8 -7 -7 -6 -6 -6 -7 -8 -7 -6 -6 -5 -5 -5
-2 -2 -2 -2 -2 -2 -2 -2 -2 -2 -2 -2 -2 -2 -2 -3 -3 -5 -7 -8 -8 -7 -8 -8 -9 -9 -9 -8 -8 -8 -7 -7 -6 -6 -7 -9 -8 -7 -6 -6 -6 -6 -6
-3 -3 -3 -3 -3 -3 -3 -3 -2 -3 -2 -2 -2 -2 -2 -3 -3 -6 -8 -8 -8 -8 -8 -9 -10 -10 -9 -9 -8 -8 -8 -8 -7 -8 -10 -9 -9 -7 -7 -7 -6 -6 -7
-4 -4 -4 -5 -4 -3 -3 -3 -3 -3 -3 -3 -3 -2 -2 -3 -4 -6 -8 -8 -9 -9 -10 -10 -10 -10 -10 -9 -9 -9 -8 -8 -8 -10 -11 -10 -8 -8 -7 -7 -7 -7 -8
-4 -4 -4 -4 -4 -4 -4 -3 -3 -3 -3 -3 -3 -3 -3 -3 -4 -6 -7 -10 -10 -10 -10 -10 -11 -11 -10 -10 -10 -9 -9 -9 -10 -11 -9 -9 -8 -8 -8 -8 -8 -8 -9
-5 -5 -5 -4 -4 -4 -4 -4 -3 -3 -3 -3 -3 -4 -3 -3 -5 -6 -8 -10 -10 -11 -11 -11 -11 -11 -10 -10 -11 -11 -10 -13 -12 -11 -10 -9 -9 -9 -9 -9 -9 -9 -9
-5 -5 -6 -5 -5 -4 -4 -4 -3 -3 -4 -4 -4 -4 -5 -5 -5 -7 -8 -9 -10 -10 -11 -11 -11 -11 -11 -11 -11 -10 -11 -12 -12 -11 -10 -9 -9 -9 -9 -9 -10 -10 -10
-6 -6 -5 -5 -5 -4 -4 -4 -4 -4 -4 -4 -5 -5 -6 -6 -6 -8 -9 -9 -11 -11 -11 -11 -11 -11 -12 -12 -11 -10 -12 -12 -11 -10 -10 -10 -10 -10 -10 -10 -10 -10 -10
-7 -6 -6 -5 -5 -5 -4 -4 -5 -5 -5 -5 -6 -6 -6 -7 -7 -9 -10 -10 -11 -11 -11 -12 -12 -12 -12 -10 -12 -12 -11 -11 -10 -10 -10 -11 -11 -11 -11 -11 -11 -11 -11
-6 -6 -6 -6 -6 -6 -5 -5 -5 -6 -6 -6 -6 -7 -8 -8 -9 -10 -10 -11 -11 -11 -11 -12 -12 -13 -11 -13 -12 -11 -11 -11 -11 -11 -11 -11 -11 -11 -12 -12 -12 -12 -12
-7 -6 -7 -6 -7 -6 -6 -6 -6 -6 -7 -7 -7 -7 -8 -9 -9 -10 -11 -11 -11 -11 -11 -12 -11 -11 -12 -13 -12 -11 -11 -11 -11 -11 -11 -12 -12 -12 -12 -13 -13 -13 -13

GFSMW_700_temp_165.txt.gz
Temp
9 10 10 10 10 9 9 8 8 7 6 6 6 6 6 5 5 5 5 5 5 5 5 5 5 5 5 5 5 5 4 4 4 4 4 4 4 4 4 4 4 4 4
9 10 10 10 9 9 7 6 6 6 5 5 5 5 5 5 5 5 5 5 4 4 4 5 5 5 5 5 5 5 5 4 4 3 3 3 3 4 4 4 4 3 3
10 10 9 9 9 9 7 6 6 5 4 4 3 2 3 3 4 4 4 4 4 4 4 4 4 4 4 4 4 5 4 4 3 3 3 3 4 3 3 3 3 3 3
8 9 9 9 9 8 6 6 5 5 4 3 2 1 2 2 3 4 4 4 4 3 3 3 3 4 4 4 4 4 4 4 3 3 3 3 3 3 3 3 3 3 3
7 8 8 8 9 8 6 5 4 4 4 2 2 1 2 3 3 3 4 4 4 3 3 3 2 3 3 3 3 3 3 3 3 2 2 2 2 2 2 2 2 2 2
6 7 7 7 6 5 5 4 4 2 2 1 1 2 3 3 3 3 3 3 4 3 3 3 2 2 2 2 2 2 3 2 2 2 2 1 1 1 1 1 1 2 2
6 6 6 6 5 4 3 2 2 1 1 1 2 1 2 2 2 3 3 3 3 3 3 2 2 1 2 2 2 1 1 2 1 1 1 0 0 0 0 0 0 1 1
5 5 5 5 5 4 3 3 2 2 1 1 1 2 2 3 3 3 3 3 3 3 2 2 2 1 1 1 1 1 1 1 1 0 0 0 -0 -0 -0 -0 -0 -1 -0
3 3 4 4 4 3 3 2 1 0 1 1 1 1 2 3 3 3 2 2 1 2 2 1 1 1 0 -0 0 0 0 0 0 -0 -0 -0 -0 -1 -1 -1 -1 -1 -1
2 3 3 2 2 2 2 2 2 2 2 1 1 1 1 1 1 1 1 0 0 0 0 0 0 -0 -1 -1 -1 -1 -1 -1 -1 -1 -1 -2 -2 -2 -2 -2 -2 -2 -2
1 1 1 1 1 1 1 1 1 1 1 1 0 0 0 0 -0 0 0 0 -0 -0 -0 -0 -0 -0 -2 -2 -3 -3 -2 -2 -2 -2 -2 -2 -2 -3 -3 -3 -3 -3 -4
-0 -0 -0 -0 -0 0 0 0 -0 -0 -0 -0 -0 -0 -1 -1 -1 -0 -0 -0 -1 -2 -2 -3 -3 -4 -5 -5 -4 -4 -3 -3 -3 -3 -4 -4 -5 -6 -5 -5 -5 -5 -5
-1 -1 -1 -0 -0 -0 -1 -1 -2 -2 -1 -1 -1 -1 -1 -1 -1 -1 -1 -2 -2 -2 -3 -4 -5 -6 -7 -6 -5 -5 -5 -5 -4 -4 -5 -5 -6 -5 -6 -5 -5 -5 -7
-2 -1 -0 -0 -0 -0 -1 -2 -2 -2 -2 -2 -2 -2 -2 -2 -2 -2 -2 -2 -3 -2 -4 -6 -7 -6 -6 -6 -6 -6 -6 -7 -7 -6 -6 -6 -6 -6 -6 -5 -6 -7 -8
-0 -1 -1 -1 -1 -1 -2 -2 -2 -2 -2 -2 -2 -2 -2 -2 -2 -2 -3 -2 -2 -5 -7 -7 -7 -7 -7 -7 -8 -7 -7 -7 -8 -8 -7 -6 -6 -6 -6 -6 -8 -9 -7
-2 -2 -1 -1 -1 -2 -3 -3 -2 -2 -2 -2 -2 -2 -2 -2 -2 -3 -2 -2 -2 -4 -7 -7 -7 -7 -8 -8 -9 -9 -8 -8 -8 -8 -7 -7 -7 -7 -6 -8 -9 -8 -7
-2 -2 -2 -2 -2 -2 -3 -2 -2 -2 -2 -2 -2 -3 -2 -2 -2 -2 -3 -3 -3 -5 -6 -7 -8 -8 -9 -9 -9 -9 -9 -8 -8 -8 -8 -7 -7 -7 -8 -8 -8 -7 -7
-3 -3 -2 -2 -3 -3 -3 -3 -3 -3 -3 -3 -3 -3 -3 -2 -2 -2 -2 -3 -4 -6 -8 -7 -9 -9 -10 -9 -9 -10 -10 -9 -9 -9 -9 -8 -7 -9 -10 -9 -8 -8 -8
-5 -4 -4 -4 -4 -3 -3 -4 -4 -4 -4 -3 -3 -3 -3 -3 -2 -3 -3 -4 -5 -7 -8 -8 -10 -10 -10 -10 -10 -10 -10 -10 -10 -9 -10 -9 -11 -10 -10 -10 -9 -8 -8
-5 -5 -4 -4 -5 -5 -5 -5 -5 -4 -4 -3 -3 -3 -3 -3 -3 -3 -4 -5 -6 -7 -9 -10 -11 -11 -11 -11 -11 -11 -11 -11 -11 -11 -10 -11 -12 -12 -11 -10 -9 -9 -9
-5 -5 -5 -5 -6 -5 -5 -5 -5 -5 -4 -4 -3 -3 -3 -3 -3 -4 -5 -6 -7 -9 -10 -11 -11 -11 -11 -12 -11 -11 -12 -12 -12 -12 -12 -13 -12 -11 -10 -10 -10 -9 -9
-5 -5 -5 -6 -6 -6 -5 -5 -5 -4 -4 -4 -4 -4 -4 -4 -4 -5 -6 -7 -8 -10 -11 -11 -11 -11 -12 -12 -12 -12 -13 -13 -12 -12 -14 -14 -13 -12 -11 -10 -10 -10 -10
-6 -6 -6 -6 -6 -6 -6 -5 -5 -5 -5 -5 -5 -5 -5 -5 -5 -6 -7 -8 -9 -10 -11 -12 -12 -12 -12 -12 -12 -12 -13 -13 -13 -13 -14 -14 -13 -13 -12 -11 -11 -11 -11
-6 -6 -6 -6 -6 -6 -6 -6 -5 -5 -5 -5 -6 -6 -6 -6 -7 -8 -9 -9 -10 -11 -11 -13 -13 -12 -12 -12 -13 -13 -13 -13 -14 -14 -14 -13 -12 -11 -11 -11 -11 -12 -12
-7 -7 -6 -7 -6 -6 -6 -6 -6 -5 -6 -6 -6 -7 -7 -7 -8 -9 -10 -10 -11 -11 -11 -13 -14 -13 -13 -13 -13 -14 -14 -15 -14 -14 -12 -12 -12 -12 -12 -12 -12 -12 -12
-7 -7 -7 -7 -7 -7 -6 -6 -6 -6 -6 -7 -7 -8 -8 -9 -9 -9 -11 -11 -11 -12 -12 -12 -13 -12 -13 -13 -13 -15 -14 -14 -13 -12 -12 -12 -12 -13 -13 -13 -13 -13 -13

GFSMW_700_temp_168.txt.gz
Temp
9 9 9 9 9 9 10 10 8 7 6 5 3 3 3 3 3 3 4 4 4 4 5 5 5 4 4 4 5 4 5 4 4 4 4 4 4 4 3 3 3 3 3
9 9 9 9 9 9 9 9 7 6 5 5 4 2 2 2 2 3 4 4 3 3 3 3 3 4 4 4 4 4 4 4 4 4 3 3 3 3 4 3 3 3 3
8 8 8 9 9 9 9 8 6 6 5 4 4 2 2 1 2 3 3 4 4 4 4 4 3 3 3 3 4 4 4 3 3 3 3 3 4 3 3 3 3 3 3
8 8 8 8 8 8 7 6 5 5 4 3 3 3 2 1 0 0 1 2 3 3 4 4 4 3 3 3 3 3 3 3 3 2 2 2 2 2 2 2 2 2 2
7 7 7 7 7 8 7 5 5 4 3 3 3 2 1 1 1 0 2 2 3 3 4 4 3 3 3 2 2 2 2 3 2 2 2 1 1 1 1 1 1 1 1
6 6 6 6 7 7 6 6 5 4 3 2 1 1 1 1 1 1 1 2 3 3 3 3 3 3 3 2 2 2 2 1 2 2 2 2 1 1 1 0 0 0 1
6 6 6 6 6 5 5 5 4 4 3 1 1 1 -0 0 1 1 2 2 2 2 2 2 3 3 3 2 1 1 1 1 1 1 1 1 1 1 1 0 0 -0 -0
4 5 5 5 4 4 3 2 2 2 2 2 1 1 1 2 2 1 2 2 2 2 3 2 2 2 2 2 1 1 1 0 0 0 0 0 0 0 0 0 -0 -0 -1
3 3 3 3 3 3 3 3 2 2 2 2 2 1 1 0 0 1 1 1 1 0 1 1 1 1 1 1 0 -0 -1 -1 -1 -1 -1 -1 -1 -1 -1 -1 -1 -1 -1
2 1 2 2 2 2 2 2 2 2 2 2 1 -0 -0 0 1 0 -0 0 0 0 0 0 -0 -1 -0 0 0 -1 -1 -2 -2 -2 -2 -2 -2 -2 -2 -2 -1 -2 -2
1 -0 0 1 1 1 1 1 1 1 1 1 0 -0 -0 -0 -0 -1 -1 -0 -0 -1 -1 -1 -1 -1 -2 -2 -3 -2 -3 -3 -3 -3 -3 -3 -3 -3 -3 -3 -3 -2 -3
0 -0 -0 -0 -0 -0 0 0 -0 -0 -1 -1 -1 -1 -1 -1 -1 -1 -2 -1 -1 -1 -2 -2 -2 -2 -3 -3 -5 -7 -7 -6 -4 -5 -4 -4 -4 -4 -4 -4 -4 -4 -4
0 -1 -1 -1 0 0 0 -0 -0 -2 -2 -2 -2 -1 -2 -2 -2 -2 -2 -2 -2 -2 -2 -2 -2 -4 -6 -6 -6 -7 -7 -6 -6 -5 -7 -6 -5 -5 -5 -5 -6 -6 -5
-1 -1 -0 0 1 1 -0 -1 -2 -2 -2 -2 -2 -2 -2 -2 -2 -2 -2 -2 -2 -2 -2 -2 -2 -6 -7 -7 -6 -7 -7 -7 -7 -7 -7 -8 -8 -8 -7 -7 -6 -6 -6
0 0 1 1 0 -0 -1 -1 -2 -3 -3 -3 -3 -2 -2 -2 -2 -2 -2 -2 -2 -2 -2 -2 -3 -6 -7 -7 -7 -8 -7 -8 -8 -8 -8 -8 -8 -8 -7 -7 -6 -6 -6
-0 -1 -2 -2 -2 -2 -2 -2 -2 -3 -3 -3 -3 -3 -3 -3 -3 -3 -2 -2 -2 -2 -2 -2 -3 -6 -7 -7 -7 -8 -8 -8 -8 -9 -9 -8 -8 -8 -8 -7 -7 -7 -7
-2 -2 -2 -2 -2 -2 -2 -3 -3 -4 -3 -3 -3 -3 -3 -3 -3 -3 -3 -2 -2 -3 -3 -3 -3 -6 -8 -8 -9 -9 -9 -9 -9 -9 -9 -9 -9 -9 -8 -8 -8 -8 -9
-3 -3 -3 -3 -3 -3 -3 -4 -4 -4 -4 -3 -4 -4 -4 -4 -4 -3 -3 -3 -3 -3 -3 -4 -4 -6 -8 -9 -10 -10 -10 -10 -10 -10 -10 -10 -10 -10 -9 -9 -9 -11 -9
-4 -4 -4 -4 -4 -4 -3 -4 -4 -4 -4 -4 -4 -4 -4 -4 -4 -3 -3 -3 -3 -3 -4 -5 -5 -7 -8 -10 -11 -10 -10 -10 -11 -11 -11 -11 -10 -10 -10 -10 -12 -11 -10
-5 -5 -5 -5 -4 -4 -4 -4 -4 -5 -5 -5 -5 -4 -4 -4 -4 -4 -4 -4 -4 -4 -5 -6 -7 -8 -9 -10 -11 -11 -11 -12 -12 -12 -11 -11 -11 -11 -12 -14 -13 -12 -11
-5 -5 -5 -5 -5 -5 -5 -5 -5 -5 -5 -6 -5 -5 -5 -4 -4 -4 -5 -5 -5 -5 -7 -7 -8 -9 -10 -11 -12 -12 -12 -13 -12 -12 -12 -12 -12 -12 -12 -12 -13 -12 -11
-6 -6 -6 -6 -6 -6 -6 -6 -6 -6 -6 -5 -5 -5 -4 -4 -5 -5 -5 -6 -6 -7 -8 -9 -9 -10 -11 -11 -12 -12 -13 -13 -13 -13 -13 -13 -13 -15 -15 -14 -13 -12 -13
-6 -6 -6 -6 -6 -6 -6 -6 -6 -6 -6 -6 -5 -5 -5 -5 -5 -6 -6 -6 -7 -8 -9 -10 -11 -11 -12 -12 -12 -13 -13 -14 -14 -14 -13 -14 -15 -14 -15 -15 -14 -13 -13
-7 -7 -7 -7 -7 -7 -6 -6 -6 -6 -6 -6 -6 -6 -6 -6 -6 -6 -7 -7 -8 -9 -10 -11 -11 -12 -12 -12 -13 -14 -14 -15 -15 -14 -14 -13 -14 -14 -14 -14 -14 -13 -12
-8 -8 -8 -8 -7 -7 -7 -7 -7 -7 -7 -6 -6 -6 -6 -7 -7 -8 -8 -9 -9 -10 -11 -11 -12 -12 -12 -13 -13 -14 -15 -14 -14 -14 -13 -14 -15 -15 -15 -14 -13 -13 -13
-8 -8 -8 -8 -8 -7 -7 -7 -7 -7 -7 -7 -7 -7 -7 -7 -8 -9 -9 -9 -10 -11 -11 -12 -12 -13 -13 -13 -14 -14 -14 -14 -14 -14 -15 -15 -14 -13 -13 -13 -13 -13 -13